Regional Weather Roundup
Issued by NWS New Orleans/Baton Rouge, LA

Home | Current Version | Previous Version | Text Only | Print | Product List | Glossary Off
Versions: 1 2 3 4 5 6 7 8 9 10 11 12 13 14 15 16 17 18 19 20 21 22 23 24 25 26 27 28 29 30 31 32 33 34 35 36 37 38 39 40 41 42 43 44 45 46 47 48 49 50

173
ASUS44 KLIX 070005
RWRLIX
NEW ORLEANS REGIONAL WEATHER ROUNDUP
NATIONAL WEATHER SERVICE NEW ORLEANS LA
600 PM CST FRI MAR 06 2015

NOTE: "FAIR" INDICATES FEW OR NO CLOUDS BELOW 12,000 FEET WITH NO
      SIGNIFICANT WEATHER AND/OR OBSTRUCTIONS TO VISIBILITY.
      SKY/WX - SKY CONDITION AND SIGNIFICANT WEATHER.
      TMP - AIR TEMPERATURE.     DP    - DEWPOINT TEMPERATURE.
      RH  - RELATIVE HUMIDITY.   PRES  - PRESSURE.
      HI  - HEAT INDEX.          WCI   - WIND CHILL INDEX.

*  THESE STATIONS ARE NOT NWS OR FAA STATIONS AND ARE NOT UNDER
   NWS QUALITY CONTROL.

LAZ038-040-048-061>063-065>067-069-070100-
SOUTHEAST LOUISIANA

CITY           SKY/WX    TMP DP  RH WIND       PRES   REMARKS
N.O. AUDUBON   NOT AVBL
N.O. INTL ARPT MOCLDY    49  20  31 N6        30.42R
6HR MIN TEMP:  45; 6HR MAX TEMP:  53;

N.O. LAKEFRONT PTCLDY    53  29  39 NW8       30.42R
6HR MIN TEMP:  49; 6HR MAX TEMP:  56;

SLIDELL        PTCLDY    51  21  30 N3        30.41R
6HR MIN TEMP:  48; 6HR MAX TEMP:  57;

BATON ROUGE    MOCLDY    51  16  24 N5        30.44R
6HR MIN TEMP:  47; 6HR MAX TEMP:  55;

BOOTHVILLE     CLOUDY    49  28  44 VRB7      30.41R
6HR MIN TEMP:  44; 6HR MAX TEMP:  50;

BELLE CHASSE   MOCLDY    51  17  26 N3        30.41R
6HR MIN TEMP:  48; 6HR MAX TEMP:  53;

BOGALUSA*        N/A     51  17  25 N7        30.44S
6HR MIN TEMP:  47; 6HR MAX TEMP:  57;

GALLIANO*      MOCLDY    48  24  38 N5        30.42S
6HR MIN TEMP:  47; 6HR MAX TEMP:  55;

NEW ROADS*       N/A     46  26  45 NW10      30.46R
6HR MIN TEMP:  45; 6HR MAX TEMP:  53;

GONZALES*        N/A     52  17  25 N6        30.43R
6HR MIN TEMP:  46; 6HR MAX TEMP:  55;

HAMMOND*       MOCLDY    50  16  25 N6        30.45R
HOUMA*         CLEAR    N/A N/A N/A N9        30.43R
PORT FOURCHON* CLEAR     50  25  37 N13       30.45R

$$

MSZ070-080>082-070100-
SOUTHERN MISSISSIPPI

CITY           SKY/WX    TMP DP  RH WIND       PRES   REMARKS
MCCOMB         MOCLDY    48  12  23 N7        30.45R
6HR MIN TEMP:  44; 6HR MAX TEMP:  53;

GULFPORT       PTCLDY    51  16  24 N9        30.40R
6HR MIN TEMP:  48; 6HR MAX TEMP:  56;

BILOXI         PTCLDY    51  18  26 N7        30.40R
6HR MIN TEMP:  49; 6HR MAX TEMP:  56;

PASCAGOULA     PTCLDY    50  17  27 N9        30.40R
6HR MIN TEMP:  49; 6HR MAX TEMP:  56;

STENNIS ARPT*  CLEAR     50  10  20 N7        30.41R

$$

COASTAL OBSERVATIONS
LAKE AND NEARSHORE STATIONS

STATION/POSITION TIME  TEMP    WIND        PRES    WAVE
                       AIR SEA DIR/SP/G            HT/PER
                 (UTC) (F)     (DEG/KT/KT) (MB)    (FT/S)
PASCAGOULA       0000   53      10/  8/ 12 1028.8
WAVELAND YACHT   0000   53 53   10/ 12/ 14 1029.3
GRAND ISLE       0000   50 57   20/ 12/ 16 1030.1
SOUTHWEST PASS   0000   49 43   20/ 13/ 15 1029.5
NEW CANAL        0000   51     300/  2/  3 1030.3
SHELL BEACH      0000   53 53  360/ 11/ 12 1029.6

OFFSHORE STATIONS

STATION/POSITION TIME  TEMP    WIND        PRES    WAVE
                       AIR SEA DIR/SP/G            HT/PER
                 (UTC) (F)     (DEG/KT/KT) (MB)    (FT/S)

$$




USA.gov is the U.S. government's official web portal to all federal, state and local government web resources and services.